Find Starlink 37306

NORAD ID: 68680 Int'l Des: 2026-077 Owner: SPXS Country: US Constellation: starlink operational
LEOCIRCULARRETROGRADE

Current View

Loading 3D Globe...

About Starlink 37306

Description loading...

Upcoming Passes

Passes for default location (London). Set your location on the main map for personalized predictions.

Altitude History

Loading altitude history...

Two-Line Element Set

1 68680U 26077U 26146.61068148 .00018506 00000-0 57388-3 0 9997
2 68680 97.2858 18.2274 0002364 96.7466 263.4046 15.33457252 7106
Epoch: May 26, 2026 • Age: 7 hours

Current Status

Altitude 469.9 km
Velocity 7.63 km/s
Sub-Earth Point -7.33°S, 12.91°W
Launch Date Apr 11, 2026
Age 0.1 years
Type internet

Technical Details

Classification Payload
Mass 575.00 kg
Dry Mass 530.00 kg
Total Mass 575.00 kg
Length 0.30 m
Diameter 4.10 m
Span 29.00 m
Shape Box + pan
Manufacturer SPXS
Bus Type Starlink V2MO
Phase Status In Orbit
Owner/State SPXS/US

Most Searched